Torna al catalogo

CZ-3B DEB

LostGTO
NORAD 40163·DEBRIS·🇨🇳 China

Lanciato Sep 4, 2010 da Xichang Satellite Launch Center

Loading…

TLE

ObsoletoSource: Space-Track

Epoca: Jun 12, 2026, 12:46 UTC

1 40163U 10042Q   26163.53213920 -.00000367  00000-0 -49780-2 0  9992
2 40163  27.5534 109.6324 7346177 202.3655 356.3004  1.92686763 82408

Traccia CZ-3B DEB in tempo reale con AllMySat

Download on the App Store